DW4604 Weather Reports


Display with metric or nautical units.
time (UTC)temp
F
wind
direction
speed
MPH
gust
MPH
rain 1hr
in
rain 24hr
in
rain mn
in
humidity
%
barometer
mb
20181019092447 50 306 0.0 5.0 0.00 0.01 0.01 97 1022.1
20181019091947 49 307 0.0 5.0 0.00 0.01 0.01 97 1022.1
20181019091447 50 318 0.0 3.0 0.00 0.01 0.01 97 1022.2
20181019090947 49 317 1.0 3.0 0.00 0.01 0.01 97 1022.2
20181019090447 49 319 1.0 3.0 0.00 0.01 0.01 97 1022.2
20181019085947 49 319 0.0 2.0 0.00 0.01 0.01 97 1022.2
20181019085447 49 312 0.0 2.0 0.00 0.01 0.01 97 1022.2
20181019084947 49 320 0.0 4.0 0.00 0.01 0.01 97 1022.1
20181019084447 49 319 0.0 4.0 0.00 0.01 0.01 97 1022.1
20181019083947 49 308 0.0 2.0 0.00 0.01 0.01 98 1022.2
20181019083447 49 303 0.0 3.0 0.00 0.01 0.01 98 1022.1
20181019082947 49 308 0.0 3.0 0.00 0.01 0.01 98 1022.1
20181019082447 49 325 1.0 5.0 0.00 0.01 0.01 98 1022.1
20181019081447 49 322 1.0 5.0 0.00 0.01 0.01 97 1022.0
20181019080947 49 335 1.0 3.0 0.00 0.01 0.01 97 1022.0
20181019080447 49 334 1.0 3.0 0.00 0.01 0.01 97 1022.0
20181019075947 49 320 0.0 3.0 0.00 0.01 0.01 97 1021.9
20181019075447 49 321 0.0 3.0 0.00 0.01 0.01 98 1021.8
20181019074947 49 312 1.0 4.0 0.00 0.01 0.01 97 1021.8
20181019074447 48 316 1.0 4.0 0.00 0.01 0.01 97 1021.8
20181019073948 48 319 1.0 3.0 0.00 0.01 0.01 97 1021.7
20181019073448 48 311 1.0 3.0 0.00 0.01 0.01 97 1021.7
20181019072948 48 315 2.0 6.0 0.00 0.01 0.01 97 1021.7
20181019072448 48 317 2.0 6.0 0.00 0.01 0.01 97 1021.7
20181019071948 49 320 1.0 4.0 0.00 0.01 0.01 97 1021.6
20181019071448 49 315 0.0 3.0 0.00 0.01 0.01 97 1021.4
20181019070948 49 313 0.0 3.0 0.00 0.01 0.01 97 1021.4
20181019070448 49 294 0.0 3.0 0.00 0.01 0.01 97 1021.3
20181019065947 49 300 0.0 4.0 0.00 0.01 0.01 97 1021.3
20181019065447 49 312 1.0 4.0 0.00 0.01 0.01 97 1021.3
20181019064947 49 316 1.0 5.0 0.00 0.01 0.01 97 1021.2
20181019064447 49 318 0.0 5.0 0.00 0.01 0.01 97 1021.2
20181019063947 49 307 0.0 1.0 0.00 0.01 0.01 97 1021.1
20181019063448 49 282 0.0 1.0 0.00 0.01 0.01 97 1021.1
20181019062948 49 283 0.0 2.0 0.00 0.01 0.01 97 1021.1
20181019062448 49 283 0.0 2.0 0.00 0.01 0.01 97 1021.0
20181019061948 49 303 0.0 1.0 0.00 0.01 0.01 97 1020.9
20181019061448 49 298 0.0 1.0 0.00 0.01 0.01 97 1020.9
20181019060948 49 227 0.0 1.0 0.00 0.01 0.01 97 1020.8
20181019060448 49 0 0.0 0.0 0.00 0.01 0.01 97 1020.8
20181019055948 49 227 0.0 1.0 0.00 0.01 0.01 97 1020.7
20181019055448 49 226 0.0 2.0 0.00 0.01 0.01 97 1020.8
20181019054948 49 227 0.0 2.0 0.00 0.01 0.01 97 1020.8
20181019054448 49 227 0.0 1.0 0.00 0.01 0.01 97 1020.7
20181019053948 49 227 0.0 1.0 0.00 0.01 0.01 97 1020.7
20181019053447 49 227 0.0 1.0 0.00 0.01 0.01 97 1020.6
20181019052947 49 227 0.0 2.0 0.00 0.01 0.01 97 1020.5
20181019052447 49 228 0.0 2.0 0.00 0.01 0.01 97 1020.4
20181019051947 49 234 0.0 1.0 0.00 0.01 0.01 97 1020.3
20181019051448 49 241 0.0 1.0 0.00 0.01 0.01 97 1020.3
20181019050948 49 248 0.0 1.0 0.00 0.01 0.01 97 1020.1
20181019050448 49 248 0.0 1.0 0.00 0.01 0.01 97 1020.1
20181019045948 49 248 0.0 1.0 0.00 0.01 0.01 97 1020.1
20181019045448 49 248 0.0 1.0 0.00 0.01 0.01 97 1020.1
20181019044948 49 248 0.0 1.0 0.00 0.01 0.01 97 1020.1
20181019044448 49 240 0.0 1.0 0.00 0.01 0.01 97 1020.0
20181019043948 50 234 0.0 1.0 0.00 0.01 0.01 97 1020.1
20181019043448 50 303 0.0 3.0 0.00 0.01 0.01 97 1020.1
20181019042948 50 313 0.0 3.0 0.00 0.01 0.01 97 1020.0
20181019042448 50 334 1.0 4.0 0.00 0.01 0.01 97 1020.0
20181019041948 50 327 1.0 4.0 0.00 0.01 0.01 97 1019.9
20181019041449 50 318 1.0 5.0 0.00 0.01 0.01 97 1019.8
20181019040949 50 318 1.0 5.0 0.00 0.01 0.01 97 1019.9
20181019040448 50 317 1.0 5.0 0.00 0.01 0.01 97 1019.9
20181019035949 50 315 1.0 4.0 0.00 0.01 0.01 97 1019.9
20181019035448 50 315 0.0 4.0 0.00 0.01 0.01 97 1020.0
20181019034948 50 311 0.0 2.0 0.00 0.01 0.01 97 1020.0
20181019034448 50 307 0.0 2.0 0.00 0.01 0.01 97 1020.0
20181019033948 50 293 0.0 1.0 0.00 0.01 0.01 97 1019.9
20181019033448 50 237 0.0 1.0 0.00 0.01 0.01 97 1019.9
20181019032948 50 235 0.0 1.0 0.00 0.01 0.01 97 1019.9
20181019032448 50 293 0.0 1.0 0.00 0.01 0.01 97 1019.8
20181019031948 50 326 0.0 1.0 0.00 0.01 0.01 97 1019.8
20181019031448 50 326 0.0 1.0 0.00 0.01 0.01 97 1019.9
20181019030949 50 0 0.0 0.0 0.00 0.01 0.01 97 1019.9
20181019030448 50 0 0.0 0.0 0.00 0.01 0.01 97 1019.8
20181019025949 50 0 0.0 0.0 0.00 0.01 0.01 97 1019.9
20181019025449 50 0 0.0 0.0 0.00 0.01 0.01 97 1019.9
20181019024949 51 0 0.0 0.0 0.00 0.01 0.01 97 1019.9
20181019024449 51 326 0.0 1.0 0.00 0.01 0.01 97 1019.9
20181019023949 51 326 0.0 1.0 0.00 0.01 0.01 97 1019.9
20181019023448 51 0 0.0 0.0 0.00 0.01 0.01 97 1019.9
20181019022948 51 326 0.0 1.0 0.00 0.01 0.01 97 1019.9
20181019022448 51 3 0.0 2.0 0.00 0.01 0.01 97 1019.9
20181019021948 51 346 0.0 2.0 0.00 0.01 0.01 97 1019.8
20181019021448 51 239 0.0 1.0 0.00 0.01 0.01 97 1019.8
20181019020948 51 239 0.0 1.0 0.00 0.01 0.01 97 1019.8
20181019020448 51 239 0.0 1.0 0.00 0.01 0.01 97 1019.8
20181019015949 51 238 0.0 1.0 0.00 0.01 0.01 97 1019.8
20181019015449 51 239 0.0 1.0 0.00 0.01 0.01 96 1019.9
20181019014949 51 245 0.0 2.0 0.00 0.01 0.01 96 1019.9
20181019014449 51 245 0.0 2.0 0.00 0.01 0.01 96 1019.9
20181019013949 51 0 0.0 0.0 0.00 0.01 0.01 96 1019.8
20181019013448 51 0 0.0 0.0 0.00 0.01 0.01 96 1019.7
20181019012948 51 0 0.0 0.0 0.00 0.01 0.01 96 1019.7
20181019012448 51 0 0.0 0.0 0.00 0.01 0.01 96 1019.6
20181019011948 51 0 0.0 0.0 0.00 0.01 0.01 96 1019.6
20181019011448 52 308 0.0 1.0 0.00 0.01 0.01 96 1019.7
20181019010948 52 318 0.0 2.0 0.00 0.01 0.01 96 1019.6
20181019010448 52 323 0.0 2.0 0.00 0.01 0.01 96 1019.6
20181019005949 52 333 0.0 1.0 0.00 0.01 0.01 96 1019.6
20181019005448 52 332 0.0 1.0 0.00 0.01 0.01 96 1019.6
20181019004949 52 332 0.0 1.0 0.00 0.01 0.01 96 1019.6
20181019004448 52 332 0.0 1.0 0.00 0.01 0.01 96 1019.7
20181019003948 51 332 0.0 1.0 0.00 0.01 0.01 96 1019.7
20181019003448 52 328 0.0 3.0 0.00 0.01 0.01 96 1019.7
20181019002949 53 323 1.0 4.0 0.00 0.01 0.01 97 1019.8
20181019002448 53 298 1.0 4.0 0.00 0.01 0.01 97 1019.8
20181019001949 53 258 1.0 3.0 0.00 0.01 0.01 96 1019.7
20181019001449 51 227 0.0 2.0 0.00 0.01 0.01 96 1019.8
20181019000949 51 0 0.0 0.0 0.00 0.01 0.01 96 1019.8
20181019000449 51 0 0.0 0.0 0.00 0.01 0.01 96 1019.8
20181018235949 51 0 0.0 0.0 0.00 0.01 0.01 96 1019.7
20181018235449 52 0 0.0 0.0 0.00 0.01 0.01 96 1019.7
20181018234949 51 0 0.0 0.0 0.00 0.01 0.01 96 1019.7
20181018234449 52 0 0.0 0.0 0.00 0.01 0.01 96 1019.6
20181018233949 52 227 0.0 1.0 0.00 0.01 0.01 96 1019.6
20181018233449 51 227 0.0 1.0 0.00 0.01 0.01 96 1019.7
20181018232949 51 0 0.0 0.0 0.00 0.01 0.01 96 1019.7
20181018232450 51 0 0.0 0.0 0.01 0.01 0.01 96 1019.7
20181018231950 51 227 0.0 1.0 0.01 0.01 0.01 96 1019.7
20181018231449 51 227 0.0 1.0 0.01 0.01 0.01 96 1019.6
20181018230949 51 0 0.0 0.0 0.01 0.01 0.01 96 1019.7
20181018230449 51 0 0.0 0.0 0.01 0.01 0.01 96 1019.7
20181018225949 51 0 0.0 0.0 0.01 0.01 0.01 95 1019.7
20181018225449 51 227 0.0 1.0 0.01 0.01 0.01 95 1019.7
20181018224949 51 227 0.0 1.0 0.01 0.01 0.01 95 1019.7
20181018224449 52 0 0.0 0.0 0.01 0.01 0.01 96 1019.7
20181018223950 51 227 0.0 1.0 0.01 0.01 0.01 96 1019.6
20181018223450 51 227 0.0 1.0 0.01 0.01 0.01 96 1019.6
20181018222949 51 227 0.0 1.0 0.01 0.01 0.01 95 1019.6
20181018222449 51 0 0.0 0.0 0.00 0.00 0.00 95 1019.7
20181018221949 51 0 0.0 0.0 0.00 0.00 0.00 95 1019.6
20181018221449 51 0 0.0 0.0 0.00 0.00 0.00 95 1019.6
20181018220949 51 0 0.0 0.0 0.00 0.00 0.00 95 1019.6
20181018220449 51 0 0.0 0.0 0.00 0.00 0.00 95 1019.5
20181018215950 51 0 0.0 0.0 0.00 0.00 0.00 95 1019.5
20181018215449 51 0 0.0 0.0 0.00 0.00 0.00 95 1019.5
20181018214949 51 227 0.0 1.0 0.00 0.00 0.00 95 1019.5
20181018214449 51 227 0.0 1.0 0.00 0.00 0.00 95 1019.5
20181018213950 51 0 0.0 0.0 0.00 0.00 0.00 95 1019.5
20181018213449 51 227 0.0 1.0 0.00 0.00 0.00 95 1019.5
20181018212950 52 227 0.0 1.0 0.00 0.00 0.00 95 1019.6
20181018212450 52 227 0.0 1.0 0.00 0.00 0.00 95 1019.6
20181018211950 52 227 0.0 2.0 0.00 0.00 0.00 95 1019.5
20181018211450 52 227 0.0 2.0 0.00 0.00 0.00 95 1019.5
20181018210950 51 227 0.0 1.0 0.00 0.00 0.00 94 1019.5
20181018210450 51 0 0.0 0.0 0.00 0.00 0.00 95 1019.6
20181018205950 52 0 0.0 0.0 0.00 0.00 0.00 94 1019.6
20181018205449 52 0 0.0 0.0 0.00 0.00 0.00 94 1019.5
20181018204949 52 0 0.0 0.0 0.00 0.00 0.00 94 1019.4
20181018204449 52 0 0.0 0.0 0.00 0.00 0.00 94 1019.4
20181018203949 52 0 0.0 0.0 0.00 0.00 0.00 94 1019.4
20181018203449 52 0 0.0 0.0 0.00 0.00 0.00 94 1019.3
20181018202950 52 0 0.0 0.0 0.00 0.00 0.00 94 1019.3
20181018202449 52 0 0.0 0.0 0.00 0.00 0.00 93 1019.4
20181018201950 52 0 0.0 0.0 0.00 0.00 0.00 93 1019.3
20181018201450 53 0 0.0 0.0 0.00 0.00 0.00 93 1019.2
20181018200950 53 0 0.0 0.0 0.00 0.00 0.00 93 1019.2
20181018200450 53 0 0.0 0.0 0.00 0.00 0.00 93 1019.2
20181018195950 53 0 0.0 0.0 0.00 0.00 0.00 93 1019.2
20181018195450 53 0 0.0 0.0 0.00 0.00 0.00 93 1019.3
20181018194950 54 0 0.0 0.0 0.00 0.00 0.00 93 1019.2
20181018194450 54 227 0.0 1.0 0.00 0.00 0.00 93 1019.2
20181018193950 54 227 0.0 1.0 0.00 0.00 0.00 93 1019.3
20181018193450 54 0 0.0 0.0 0.00 0.00 0.00 92 1019.2
20181018192950 55 0 0.0 0.0 0.00 0.00 0.00 92 1019.3
20181018192450 55 0 0.0 0.0 0.00 0.00 0.00 92 1019.2
20181018191950 55 0 0.0 0.0 0.00 0.00 0.00 92 1019.1
20181018191450 56 227 0.0 1.0 0.00 0.00 0.00 92 1019.1
20181018190950 55 227 0.0 1.0 0.00 0.00 0.00 92 1019.2
20181018190450 55 227 0.0 1.0 0.00 0.00 0.00 91 1019.1
20181018185951 56 0 0.0 0.0 0.00 0.00 0.00 91 1019.1
20181018185451 56 0 0.0 0.0 0.00 0.00 0.00 91 1019.1
20181018184950 56 0 0.0 0.0 0.00 0.00 0.00 90 1019.1
20181018184450 56 0 0.0 0.0 0.00 0.00 0.00 90 1019.1
20181018183950 56 0 0.0 0.0 0.00 0.00 0.00 90 1019.1
20181018183450 57 227 0.0 1.0 0.00 0.00 0.00 89 1019.0
20181018182950 57 227 0.0 1.0 0.00 0.00 0.00 89 1018.8
20181018182450 57 227 0.0 1.0 0.00 0.00 0.00 88 1018.8
20181018181950 57 0 0.0 0.0 0.00 0.00 0.00 88 1018.9
20181018181450 57 227 0.0 1.0 0.00 0.00 0.00 87 1018.8
20181018180950 58 227 0.0 1.0 0.00 0.00 0.00 87 1018.8
20181018180450 58 227 0.0 1.0 0.00 0.00 0.00 87 1018.8
20181018175950 58 0 0.0 0.0 0.00 0.00 0.00 87 1018.9
20181018175450 58 0 0.0 0.0 0.00 0.00 0.00 87 1018.8
20181018174951 58 0 0.0 0.0 0.00 0.00 0.00 86 1018.8
20181018174450 58 0 0.0 0.0 0.00 0.00 0.00 86 1018.8
20181018173950 58 0 0.0 0.0 0.00 0.00 0.00 86 1018.8
20181018173451 58 0 0.0 0.0 0.00 0.00 0.00 86 1018.8
20181018172951 58 0 0.0 0.0 0.00 0.00 0.00 86 1018.9
20181018172450 58 0 0.0 0.0 0.00 0.00 0.00 85 1018.9
20181018171951 58 0 0.0 0.0 0.00 0.00 0.00 85 1018.9
20181018171451 58 0 0.0 0.0 0.00 0.00 0.00 84 1019.0
20181018170951 59 0 0.0 0.0 0.00 0.00 0.00 84 1018.9
20181018170451 59 227 0.0 1.0 0.00 0.00 0.00 84 1018.7
20181018165951 59 227 0.0 1.0 0.00 0.00 0.00 83 1018.6
20181018165450 59 227 0.0 1.0 0.00 0.00 0.00 83 1018.7
20181018164950 60 227 0.0 1.0 0.00 0.00 0.00 82 1018.7
20181018164450 60 226 0.0 1.0 0.00 0.00 0.00 82 1018.7
20181018163950 60 226 0.0 1.0 0.00 0.00 0.00 82 1018.7
20181018163450 60 0 0.0 0.0 0.00 0.00 0.00 81 1018.7
20181018162951 60 0 0.0 0.0 0.00 0.00 0.00 81 1018.7
20181018162451 60 0 0.0 0.0 0.00 0.00 0.00 81 1018.6
20181018161951 60 0 0.0 0.0 0.00 0.00 0.00 81 1018.6
20181018161451 61 0 0.0 0.0 0.00 0.00 0.00 81 1018.6
20181018160951 61 0 0.0 0.0 0.00 0.00 0.00 81 1018.5
20181018160451 61 0 0.0 0.0 0.00 0.00 0.00 80 1018.6
20181018155951 61 0 0.0 0.0 0.00 0.00 0.00 80 1018.5
20181018155450 62 0 0.0 0.0 0.00 0.00 0.00 79 1018.5
20181018154950 62 0 0.0 0.0 0.00 0.00 0.00 79 1018.5
20181018154451 62 0 0.0 0.0 0.00 0.00 0.00 78 1018.4
20181018153951 62 0 0.0 0.0 0.00 0.00 0.00 78 1018.4
20181018153451 62 0 0.0 0.0 0.00 0.00 0.00 77 1018.3
20181018152951 63 0 0.0 0.0 0.00 0.00 0.00 77 1018.3
20181018152451 63 0 0.0 0.0 0.00 0.00 0.00 77 1018.3
20181018151951 63 227 0.0 1.0 0.00 0.00 0.00 77 1018.3
20181018151451 63 226 0.0 1.0 0.00 0.00 0.00 76 1018.4
20181018150951 63 227 0.0 2.0 0.00 0.00 0.00 76 1018.4
20181018150451 63 227 0.0 2.0 0.00 0.00 0.00 75 1018.4
20181018145951 64 227 0.0 2.0 0.00 0.00 0.00 75 1018.4
20181018145451 64 226 0.0 2.0 0.00 0.00 0.00 75 1018.5
20181018144951 64 232 0.0 3.0 0.00 0.00 0.00 74 1018.5
20181018144450 64 234 0.0 3.0 0.00 0.00 0.00 73 1018.5
20181018143951 64 241 0.0 2.0 0.00 0.00 0.00 73 1018.5
20181018143451 65 241 0.0 1.0 0.00 0.00 0.00 72 1018.4
20181018142951 65 245 0.0 2.0 0.00 0.00 0.00 72 1018.3
20181018142451 65 246 0.0 2.0 0.00 0.00 0.00 72 1018.4
20181018141951 65 319 0.0 1.0 0.00 0.00 0.00 72 1018.4
20181018141451 65 320 0.0 2.0 0.00 0.00 0.00 71 1018.4
20181018140951 65 320 0.0 2.0 0.00 0.00 0.00 70 1018.3
20181018140451 65 272 0.0 2.0 0.00 0.00 0.00 70 1018.4
20181018135951 65 246 1.0 3.0 0.00 0.00 0.00 70 1018.4
20181018135451 65 235 1.0 3.0 0.00 0.00 0.00 71 1018.4
20181018134951 65 237 1.0 3.0 0.00 0.00 0.00 70 1018.4
20181018134452 66 238 1.0 4.0 0.00 0.00 0.00 70 1018.5
20181018133951 66 237 1.0 5.0 0.00 0.00 0.00 70 1018.5
20181018133451 66 240 1.0 5.0 0.00 0.00 0.00 69 1018.5
20181018132951 66 259 0.0 3.0 0.00 0.00 0.00 72 1018.5
20181018132451 65 242 1.0 4.0 0.00 0.00 0.00 72 1018.5
20181018131952 65 242 1.0 4.0 0.00 0.00 0.00 72 1018.4
20181018131452 65 263 1.0 3.0 0.00 0.00 0.00 72 1018.4
20181018130952 64 283 0.0 3.0 0.00 0.00 0.00 73 1018.4
20181018130452 64 295 0.0 3.0 0.00 0.00 0.00 73 1018.4
20181018125952 64 278 0.0 2.0 0.00 0.00 0.00 74 1018.4
20181018125451 63 226 0.0 2.0 0.00 0.00 0.00 76 1018.4
20181018124951 63 235 0.0 2.0 0.00 0.00 0.00 77 1018.5
20181018124451 62 239 1.0 3.0 0.00 0.00 0.00 77 1018.5
20181018123951 62 254 0.0 3.0 0.00 0.00 0.00 77 1018.5
20181018123451 63 307 0.0 2.0 0.00 0.00 0.00 77 1018.4
20181018122951 63 305 0.0 2.0 0.00 0.00 0.00 78 1018.5
20181018122451 63 309 1.0 2.0 0.00 0.00 0.00 78 1018.6
20181018121951 62 301 1.0 3.0 0.00 0.00 0.00 78 1018.6
20181018121451 62 295 0.0 3.0 0.00 0.00 0.00 78 1018.6
20181018120951 62 318 0.0 3.0 0.00 0.00 0.00 79 1018.6
20181018120452 62 310 0.0 3.0 0.00 0.00 0.00 79 1018.6
20181018115952 62 299 0.0 2.0 0.00 0.00 0.00 79 1018.6
20181018115452 62 325 0.0 2.0 0.00 0.00 0.00 80 1018.7
20181018114952 62 321 0.0 3.0 0.00 0.00 0.00 81 1018.7
20181018114452 62 284 0.0 3.0 0.00 0.00 0.00 81 1018.7
20181018113952 62 293 1.0 3.0 0.00 0.00 0.00 81 1018.8
20181018113451 62 321 0.0 3.0 0.00 0.00 0.00 81 1018.8
20181018112951 62 314 1.0 5.0 0.00 0.00 0.00 81 1018.9
20181018112451 62 317 1.0 5.0 0.00 0.00 0.00 80 1018.9
20181018111951 62 301 1.0 5.0 0.00 0.00 0.00 80 1018.9
20181018111451 62 288 1.0 5.0 0.00 0.00 0.00 80 1018.9
20181018110951 62 266 1.0 4.0 0.00 0.00 0.00 79 1018.9
20181018110451 62 241 0.0 3.0 0.00 0.00 0.00 79 1018.9
20181018105952 62 235 1.0 5.0 0.00 0.00 0.00 79 1019.0
20181018105452 62 238 1.0 5.0 0.00 0.00 0.00 78 1018.9
20181018104952 63 243 1.0 4.0 0.00 0.00 0.00 77 1019.0
20181018104452 63 243 1.0 4.0 0.00 0.00 0.00 77 1019.1
20181018103952 63 260 1.0 4.0 0.00 0.00 0.00 77 1019.1
20181018103452 63 294 0.0 4.0 0.00 0.00 0.00 76 1019.1
20181018102952 63 251 0.0 1.0 0.00 0.00 0.00 77 1019.1
20181018102452 63 236 0.0 3.0 0.00 0.00 0.00 77 1019.1
20181018101952 63 257 0.0 3.0 0.00 0.00 0.00 77 1019.2
20181018101452 63 260 0.0 2.0 0.00 0.00 0.00 77 1019.2
20181018100952 63 237 0.0 2.0 0.00 0.00 0.00 77 1019.2
20181018100452 63 238 0.0 3.0 0.00 0.00 0.00 77 1019.1
20181018095952 63 238 1.0 3.0 0.00 0.00 0.00 77 1019.2
20181018095451 63 235 1.0 4.0 0.00 0.00 0.00 76 1019.2
20181018094951 63 232 0.0 4.0 0.00 0.00 0.00 76 1019.2
20181018094452 63 230 0.0 2.0 0.00 0.00 0.00 76 1019.2
20181018093952 63 236 2.0 4.0 0.00 0.00 0.00 76 1019.2
20181018093452 63 238 1.0 4.0 0.00 0.00 0.00 75 1019.3
20181018092952 64 239 0.0 3.0 0.00 0.00 0.00 74 1019.3